Le nostre stazioni meteo in Italia

Pubblicità
Il mio iltempo24.it
Brescia/Ghedi, Italia (16088): Temperatura & dewpoint: 27.06.2020 12:00:00 - 03.07.2020 12:00:00 (CEST)Brescia/Ghedi, Italia (16088): velocità del vento: 27.06.2020 12:00:00 - 03.07.2020 12:00:00 (CEST)Brescia/Ghedi, Italia (16088): direzione del vento: 27.06.2020 12:00:00 - 03.07.2020 12:00:00 (CEST)Brescia/Ghedi, Italia (16088): reduced air pressure: 27.06.2020 12:00:00 - 03.07.2020 12:00:00 (CEST)Brescia/Ghedi, Italia (16088): visibility: 27.06.2020 12:00:00 - 03.07.2020 12:00:00 (CEST)
Data & Tempo tt [°C] td [°C] ff [km/h] ff [kn] dd ppp [hPa] vv [km]
03.07.2020 12:00:00 27,1 14,8 11 6 ESE 1011,8 20
03.07.2020 11:00:00 26,1 16,4 4 2 SO 1011,5 20
03.07.2020 10:00:00 25,0 17,2 4 2 OSO 1011,4 20
03.07.2020 09:00:00 23,5 17,0 4 2 SSO 1011,2 20
03.07.2020 08:00:00 23,0 17,2 2 1 NO 1010,5 10
03.07.2020 07:00:00 21,8 17,8 5 3 O 1010,7 10
03.07.2020 06:00:00 21,2 17,2 4 2 O 1010,3 10
03.07.2020 05:00:00 21,4 17,6 4 2 O 1010,3 10
03.07.2020 04:00:00 21,4 17,8 4 2 S 1010,3 10
03.07.2020 03:00:00 21,4 17,8 4 2 SSE 1010,3 10
03.07.2020 02:00:00 21,3 17,5 21 11 E 1009,3 10
03.07.2020 01:00:00 21,3 17,5 18 10 E 1009,3 10
03.07.2020 00:00:00 21,4 17,4 16 9 NE 1010,1 10
02.07.2020 23:00:00 22,2 19,4 35 19 NNO 1010,3 6
02.07.2020 22:00:00 26,4 20,7 13 7 E 1007,9 10
02.07.2020 21:00:00 27,0 20,3 8 4 ENE 1007,9 10
02.07.2020 20:00:00 29,0 19,9 8 4 SSE 1007,8 10
02.07.2020 19:00:00 31,0 20,3 9 5 SSE 1007,8 10
02.07.2020 18:00:00 30,2 18,6 4 2 S 1008,0 10
02.07.2020 17:00:00 30,2 18,0 5 3 SSE 1008,5 10
02.07.2020 16:00:00 29,5 18,0 8 4 S 1009,2 10
02.07.2020 15:00:00 29,0 19,3 8 4 SO 1010,0 10
02.07.2020 14:00:00 28,0 18,7 5 3 S 1010,3 10
02.07.2020 13:00:00 27,2 17,7 8 4 SO 1010,7 10
02.07.2020 12:00:00 27,0 18,0 5 3 SO 1010,9 10
02.07.2020 11:00:00 25,8 19,0 8 4 SO 1011,0 10
02.07.2020 10:00:00 24,2 18,4 5 3 SSO 1011,0 10
02.07.2020 09:00:00 23,0 18,5 5 3 OSO 1011,0 10
02.07.2020 08:00:00 22,0 18,0 9 5 ONO 1010,5 7
02.07.2020 07:00:00 21,2 17,6 9 5 NO 1010,9 10
02.07.2020 06:00:00 21,0 18,2 5 3 ENE 1011,0 10
02.07.2020 05:00:00 21,0 18,6 5 3 O 1010,6 10
02.07.2020 04:00:00 22,0 18,4 4 2 SSO 1010,3 10
02.07.2020 03:00:00 24,5 17,5 5 3 OSO 1010,5 10
02.07.2020 02:00:00 25,0 21,1 2 1 O 1010,7 10
02.07.2020 01:00:00 25,0 21,1 9 5 ENE 1010,7 10
02.07.2020 00:00:00 25,2 21,1 5 3 N 1010,6 10
01.07.2020 23:00:00 25,8 21,0 5 3 ONO 1010,3 10
01.07.2020 22:00:00 26,6 20,9 4 2 O 1009,2 10
01.07.2020 21:00:00 28,0 20,5 5 3 O 1008,8 10
01.07.2020 20:00:00 30,0 20,3 5 3 OSO 1008,0 10
01.07.2020 19:00:00 30,0 19,7 4 2 SSO 1008,2 10
01.07.2020 18:00:00 29,4 19,1 4 2 SSO 1008,7 10
01.07.2020 17:00:00 30,0 20,0 8 4 S 1009,0 10
01.07.2020 16:00:00 29,2 18,9 11 6 E 1009,8 10
01.07.2020 15:00:00 28,2 19,2 11 6 ENE 1010,1 10
01.07.2020 14:00:00 25,0 20,0 21 11 ENE 1011,2 10
01.07.2020 13:00:00 23,0 19,2 22 12 NNE 1011,5 7
01.07.2020 12:00:00 29,0 19,9 5 3 SSO 1010,8 6
01.07.2020 11:00:00 28,2 20,7 8 4 S 1011,1 6
01.07.2020 10:00:00 27,6 21,2 4 2 SO 1011,3 6
01.07.2020 09:00:00 26,2 21,4 4 2 S 1011,4 7
01.07.2020 08:00:00 25,6 21,1 2 1 SSO 1011,1 10
01.07.2020 07:00:00 24,2 21,3 0 0 N 1010,7 10
01.07.2020 06:00:00 24,8 21,7 5 3 N 1010,4 10
01.07.2020 05:00:00 24,8 21,7 4 2 N 1010,3 10
01.07.2020 04:00:00 25,0 21,5 4 2 NE 1010,5 10
01.07.2020 03:00:00 25,0 21,3 4 2 NE 1010,4 10
01.07.2020 02:00:00 25,1 21,6 5 3 NNE 1010,3 10
01.07.2020 01:00:00 25,2 21,3 5 3 NNE 1010,5 10
01.07.2020 00:00:00 26,0 21,2 5 3 N 1010,3 10
30.06.2020 23:00:00 26,8 21,3 4 2 NNE 1010,1 10
30.06.2020 22:00:00 26,6 19,7 9 5 NNE 1009,6 10
30.06.2020 21:00:00 29,6 19,6 2 1 S 1009,0 10
30.06.2020 20:00:00 31,0 18,4 4 2 S 1009,5 10
30.06.2020 19:00:00 31,2 18,2 4 2 OSO 1009,8 10
30.06.2020 18:00:00 31,0 18,7 5 3 SSO 1010,3 10
30.06.2020 17:00:00 30,8 18,5 8 4 OSO 1010,7 10
30.06.2020 16:00:00 30,8 18,5 5 3 SSO 1011,0 10
30.06.2020 15:00:00 30,4 18,8 8 4 S 1011,2 10
30.06.2020 14:00:00 29,8 18,3 9 5 SSE 1011,4 10
30.06.2020 13:00:00 29,2 18,0 9 5 SSE 1011,5 10
30.06.2020 12:00:00 28,4 17,6 9 5 SSE 1011,6 10
30.06.2020 11:00:00 27,5 18,0 11 6 SE 1011,5 10
30.06.2020 10:00:00 26,4 18,0 9 5 ESE 1011,6 10
30.06.2020 09:00:00 25,2 18,4 8 4 SSE 1011,7 10
30.06.2020 08:00:00 24,1 19,4 5 3 SSE 1011,4 10
30.06.2020 07:00:00 22,1 19,3 2 1 SE 1011,4 20
30.06.2020 06:00:00 22,2 19,2 2 1 ENE 1010,8 10
30.06.2020 05:00:00 22,4 19,6 4 2 NE 1010,8 10
30.06.2020 04:00:00 23,0 20,0 4 2 ENE 1010,6 10
30.06.2020 03:00:00 23,3 19,7 4 2 SSE 1010,6 10
30.06.2020 02:00:00 23,9 19,8 5 3 ESE 1010,6 10
30.06.2020 01:00:00 24,3 19,8 11 6 E 1010,4 10
30.06.2020 00:00:00 25,2 19,8 9 5 E 1010,1 10
29.06.2020 23:00:00 26,4 21,4 24 13 ESE 1009,7 10
29.06.2020 22:00:00 28,4 20,7 8 4 SE 1008,7 20
29.06.2020 21:00:00 30,8 19,2 2 1 SSE 1007,8 20
29.06.2020 20:00:00 31,2 18,9 8 4 O 1006,8 20
29.06.2020 19:00:00 31,6 18,6 8 4 O 1006,9 20
29.06.2020 18:00:00 31,6 18,6 11 6 OSO 1006,9 20
29.06.2020 17:00:00 31,4 18,7 13 7 O 1006,9 20
29.06.2020 16:00:00 31,2 17,9 11 6 OSO 1007,3 20
29.06.2020 15:00:00 30,6 18,7 13 7 OSO 1008,1 20
29.06.2020 14:00:00 30,1 18,5 13 7 OSO 1008,7 20
29.06.2020 13:00:00 29,2 18,3 11 6 O 1009,0 20
29.06.2020 12:00:00 29,2 18,9 13 7 O 1009,4 20
29.06.2020 11:00:00 27,2 18,0 15 8 O 1010,3 20
29.06.2020 10:00:00 26,3 17,1 13 7 ONO 1010,5 20
29.06.2020 09:00:00 24,8 17,0 9 5 NO 1010,6 20
29.06.2020 08:00:00 23,8 17,5 8 4 O 1010,4 20
29.06.2020 07:00:00 22,2 17,1 5 3 ONO 1010,4 20
29.06.2020 06:00:00 22,2 17,1 4 2 O 1010,6 20
29.06.2020 05:00:00 22,2 18,2 9 5 ONO 1011,1 20
29.06.2020 04:00:00 22,4 18,2 4 2 ONO 1011,4 20
29.06.2020 03:00:00 23,0 18,1 8 4 O 1011,6 20
29.06.2020 02:00:00 23,2 18,5 8 4 O 1012,1 20
29.06.2020 01:00:00 23,2 19,0 4 2 ONO 1012,2 20
29.06.2020 00:00:00 24,0 18,4 5 3 NNO 1012,2 20
28.06.2020 23:00:00 26,0 18,9 4 2 NO 1012,1 20
28.06.2020 22:00:00 27,0 17,5 5 3 O 1012,1 20
28.06.2020 21:00:00 28,4 14,6 2 1 OSO 1012,1 20
28.06.2020 20:00:00 30,6 14,3 8 4 O 1012,2 20
28.06.2020 19:00:00 31,1 13,4 8 4 O 1012,4 20
28.06.2020 18:00:00 31,1 13,8 9 5 ONO 1012,8 20
28.06.2020 17:00:00 31,1 14,3 5 3 SO 1013,4 10
28.06.2020 16:00:00 30,7 14,4 8 4 OSO 1013,8 10
28.06.2020 15:00:00 30,0 14,1 8 4 O 1014,2 10
28.06.2020 14:00:00 29,1 15,6 9 5 OSO 1014,7 10
28.06.2020 13:00:00 28,5 17,7 8 4 O 1015,4 10
28.06.2020 12:00:00 27,3 17,8 9 5 O 1015,6 10
28.06.2020 11:00:00 26,3 17,7 5 3 S 1016,2 10
28.06.2020 10:00:00 25,1 17,8 4 2 S 1016,2 8
28.06.2020 09:00:00 22,9 18,7 4 2 S 1015,9 8
28.06.2020 08:00:00 22,6 18,6 5 3 OSO 1015,3 8
28.06.2020 07:00:00 22,0 18,4 4 2 OSO 1015,3 8
28.06.2020 06:00:00 21,8 18,4 5 3 OSO 1015,1 10
28.06.2020 05:00:00 21,8 18,4 5 3 SO 1015,1 10
28.06.2020 04:00:00 22,0 18,6 9 5 O 1014,9 10
28.06.2020 03:00:00 22,0 18,6 8 4 O 1014,9 10
28.06.2020 02:00:00 23,6 18,9 8 4 O 1014,6 10
28.06.2020 01:00:00 23,6 18,9 8 4 O 1014,6 10
28.06.2020 00:00:00 24,0 18,2 8 4 OSO 1014,2 10
27.06.2020 23:00:00 25,0 18,0 5 3 O 1014,2 10
27.06.2020 22:00:00 26,0 17,6 5 3 O 1014,2 10
27.06.2020 21:00:00 27,0 15,7 5 3 O 1014,1 10
27.06.2020 20:00:00 29,4 15,2 9 5 O 1013,8 10
27.06.2020 19:00:00 30,4 14,1 4 2 SO 1013,7 10
27.06.2020 18:00:00 30,4 14,1 4 2 S 1013,9 10
27.06.2020 17:00:00 30,6 13,8 8 4 OSO 1013,9 10
27.06.2020 16:00:00 29,8 14,4 8 4 E 1014,0 10
27.06.2020 15:00:00 29,4 15,9 5 3 SO 1014,6 10
27.06.2020 14:00:00 29,0 16,5 5 3 S 1015,1 10
27.06.2020 13:00:00 28,2 16,8 5 3 O 1015,4 10
27.06.2020 12:00:00 27,8 16,7 5 3 O 1015,5 10

tt = Temperatura
td = dewpoint
ff = velocità del vento
dd = direzione del vento
ppp = reduced air pressure
vv = visibility

Stazioni seguenti

WeatherPro
AMSI
MeteoEarth